Location: Buisson
(44.2787°N, 4.9969°E)
Time: 00:49:55
(UTC+00:00)

Cosmos 923 Rocket - Pass Details

Date: 18 April 2021
Orbit: 759 x 785 km, 74.0° (Epoch: 07 May)

Event Time Altitude Azimuth Distance (km) Brightness Sun altitude
Rises 02:53:21 0° 332° (NNW) 3,230 7.4 -19.5°
Reaches altitude 10° 02:55:51 10° 324° (NW) 2,301 6.5 -19.2°
Maximum altitude 03:00:38 38° 258° (WSW) 1,152 4.4 -18.5°
Enters shadow 03:01:44 34° 230° (SW) 1,239 4.5 -18.3°
